Location: Holcomb Observatory
(44.4922°N, 73.1654°W)
Time: 22:13:57
(UTC-04:00)

Daily predictions for brighter satellites

Satellite Brightness Start Highest point End
(mag) Time Altitude Azimuth Time Altitude Azimuth Time Altitude Azimuth
METEOR-M 4.4 19:29:52 10° S 19:35:12 77° WSW 19:40:35 10° NNW
FREGAT/IRIS 2.6 19:32:29 10° SSE 19:35:33 84° ENE 19:38:38 10° N
CZ-2D R/B 4.3 19:34:53 10° SE 19:38:11 28° ENE 19:41:31 10° N
Helios 1B rocket 4.0 19:36:25 10° NE 19:38:51 15° E 19:41:16 10° SE
Helios 1A 4.2 19:39:04 10° ESE 19:42:21 23° ENE 19:45:39 10° NNE
Cosmos 1437 Rocket 2.9 19:42:44 10° S 19:46:38 54° E 19:50:37 10° NNE
SJ-6B 2.9 19:43:40 10° S 19:47:24 78° WSW 19:51:09 10° NNW
Cosmos 2098 4.2 19:45:59 10° S 19:49:20 88° ESE 19:52:21 10° N
Lacrosse 4 Rocket 1.3 19:45:48 10° SSW 19:49:48 62° ESE 19:53:49 10° NE
Resurs 1-3 3.8 19:48:51 10° SSE 19:53:05 50° ENE 19:57:20 10° N
In-Cosmos 22 4.4 19:51:42 10° N 19:56:48 43° ENE 20:01:48 10° SE
USA 215 3.9 19:52:16 10° ENE 19:57:59 31° SE 20:03:38 10° S
Cosmos 1844 Rocket 2.7 19:53:54 10° SSW 19:59:33 87° ESE 20:05:14 10° NNE
Spot 2 Rocket 3.5 19:55:19 10° SSE 20:00:22 69° ENE 20:05:29 10° N
Cosmos 2150 Rocket 3.9 19:56:55 10° SSW 20:02:02 74° ESE 20:07:12 10° NNE
Cosmos 1758 4.4 20:04:03 10° SE 20:07:16 24° E 20:10:32 10° NE
Cosmos 1833 Rocket 3.8 20:02:53 10° N 20:07:34 26° NE 20:10:56 16° E
FengYun 1-2 T 4.4 20:02:32 10° S 20:08:05 78° WSW 20:13:45 10° NNW
Cosmos 2278 Rocket 2.5 20:03:27 10° S 20:08:49 45° ESE 20:14:12 10° NE
Cosmos 1378 3.6 20:08:28 10° NNW 20:12:13 66° W 20:15:56 10° S
Cosmos 1934 Rocket 3.9 20:06:44 10° S 20:12:51 77° E 20:18:57 10° N
SAR-Lupe-4 3.8 20:11:03 10° SSE 20:14:29 49° ENE 20:17:59 10° N
Cosmos 1898 Rocket 3.9 20:09:51 10° SSW 20:15:08 68° WNW 20:20:25 10° NNE
Cosmos 1939 Rocket 4.0 20:13:32 18° ESE 20:15:29 26° ENE 20:18:57 10° N
Tiangong 1 1.8 20:13:06 10° W 20:15:52 38° SSW 20:17:21 21° SE
Cosmos 990 Rocket 3.9 20:10:57 10° SSW 20:16:11 75° ESE 20:21:26 10° NNE
Okean 3 Rocket 3.7 20:12:50 10° N 20:17:09 53° ENE 20:21:27 10° SSE
Cosmos 1953 3.1 20:14:03 10° SSE 20:17:36 30° E 20:21:10 10° NNE
Envisat 3.5 20:14:19 13° SE 20:18:20 38° ENE 20:23:02 10° N
FENGYUN 3A 4.3 20:13:52 10° S 20:19:11 58° W 20:24:32 10° NNW
Meteor 1-24 Rocket 3.9 20:16:15 10° NNW 20:21:42 76° W 20:27:19 10° S
H-2A R/B 3.3 20:19:14 10° S 20:23:05 62° W 20:26:59 10° NNW
Cosmos 1125 Rocket 4.2 20:19:16 10° SSE 20:23:46 30° E 20:28:16 10° NE
USA 186 0.7 20:24:57 39° SSE 20:25:37 68° ENE 20:27:51 10° N
Abrixas 2.7 20:23:09 10° WNW 20:25:57 53° NNE 20:26:54 34° ENE
Geosat 3.9 20:26:18 10° NNE 20:31:22 82° ESE 20:36:23 10° SSW
USA 267 4.0 20:27:21 16° E 20:32:03 40° NNE 20:38:04 10° NW
SAR-Lupe-1 3.9 20:31:15 17° SSE 20:33:55 75° ENE 20:37:30 10° N
Cosmos 2082 Rocket 2.6 20:31:33 10° NNW 20:37:02 45° ENE 20:39:46 27° ESE
Lacrosse 5 rocket 2.9 20:34:55 10° NNW 20:38:06 22° NNE 20:39:27 18° NE
ALOS 4.1 20:33:55 10° SSW 20:38:07 33° W 20:42:20 10° NNW
GP-B 3.2 20:37:25 17° SSE 20:40:42 54° E 20:45:03 10° N
CZ-3B DEB 2.7 20:30:27 10° SW 20:41:19 85° NW 20:45:49 12° NE
Resurs 01 Rocket 2.9 20:37:26 10° S 20:41:37 42° W 20:45:51 10° NNW
Meteor 1-4 Rocket 2.5 20:40:40 31° SSE 20:41:58 50° E 20:45:21 10° NNE
CZ-4B DEB 2.5 20:41:44 45° SE 20:42:32 72° ENE 20:45:39 10° N
Cosmos 1818 3.6 20:37:11 10° NNW 20:42:37 64° NE 20:45:20 29° SE
RESURS DK-1 3.0 20:38:45 10° NW 20:42:47 53° WSW 20:46:08 14° S
Cosmos 1766 4.1 20:39:10 10° SSW 20:42:57 52° WNW 20:46:46 10° N
Cosmos 1544 2.9 20:40:06 10° S 20:43:43 77° E 20:47:24 10° NNE
ERS-1 Rocket 3.6 20:43:32 30° ESE 20:45:05 38° ENE 20:49:43 10° N
SL-27 R/B 3.9 20:43:43 10° NW 20:47:02 37° WSW 20:50:24 10° S
BREEZE-M DEB (TANK) 3.9 20:45:39 10° SSW 20:49:12 36° SE 20:59:27 10° ENE
Cosmos 2100 Rocket 4.3 20:44:06 11° SSE 20:49:48 45° E 20:55:49 10° NNE
Meteor 1-29 2.8 20:46:33 10° NNE 20:50:01 73° ESE 20:52:30 18° S
Cosmos 1605 Rocket 4.1 20:44:20 10° S 20:50:36 80° W 20:57:00 10° N
Timation 1 Rocket 4.4 20:45:03 10° S 20:50:54 56° ESE 20:56:47 10° NE
COSMOS 2487 3.0 20:47:28 10° N 20:50:46 41° ENE 20:50:46 41° ENE
Cosmos 1271 Rocket 4.4 20:53:13 22° NE 20:53:13 22° NE 20:55:00 10° NNE
Lacrosse 5 1.7 20:48:52 10° SW 20:53:56 84° SE 20:58:10 15° NE
Cosmos 1766 Rocket 3.5 20:52:00 10° N 20:56:28 66° E 20:57:56 40° SSE
Cosmos 1076 Rocket 3.4 20:53:19 10° N 20:57:35 86° W 20:59:48 28° S
Cosmos 1269 Rocket 3.9 20:52:44 10° NNW 20:58:01 70° ENE 21:00:06 37° SE
SPOT 5 4.0 20:58:37 29° ENE 20:59:02 30° ENE 21:03:38 10° N
Meteor 1-21 Rocket 4.2 20:55:42 10° N 21:01:33 88° E 21:05:51 19° S
Cosmos 2098 Rocket 4.3 20:54:48 10° S 21:01:52 86° E 21:09:33 10° N
ARGOS 4.0 21:06:43 31° ENE 21:06:50 31° ENE 21:11:28 10° N
Cosmos 1802 Rocket 4.1 21:05:09 36° SE 21:07:08 48° E 21:13:01 10° NNE
MetOp-A 4.4 21:11:56 44° E 21:12:28 46° ENE 21:17:34 10° N
Helios 1B rocket 3.3 21:10:26 10° N 21:14:26 49° WNW 21:18:25 10° SW
Cosmos 2344 4.1 21:06:55 10° SW 21:14:32 65° NW 21:23:29 10° NE
Cosmos 2061 Rocket 4.0 21:11:25 26° SSE 21:15:02 61° E 21:21:22 10° NNE
Timation 2 Rocket 3.9 21:11:27 10° NNW 21:17:52 77° ENE 21:19:44 47° SE
Cosmos 1674 2.7 21:14:43 10° NNW 21:18:29 72° W 21:18:33 71° WSW
Cosmos 1867 3.5 21:13:34 10° SSW 21:18:55 61° ESE 21:24:19 10° NE
Cosmos-2242 2.8 21:22:00 83° NE 21:22:00 83° NE 21:26:08 10° N
Cosmos 1340 Rocket 3.2 21:23:52 10° N 21:27:12 59° N 21:27:12 59° N
Cosmos 1743 Rocket 3.9 21:24:04 10° N 21:27:44 56° NNE 21:27:44 56° NNE
Lacrosse 4 Rocket 4.3 21:26:17 10° W 21:28:54 16° NW 21:31:32 10° N
H-2A R/B 4.3 21:33:18 13° NNE 21:33:18 13° NNE 21:34:03 10° NNE
Terra 4.0 21:34:10 15° NE 21:34:10 15° NE 21:35:30 10° NNE
Cosmos 1470 3.6 21:33:42 45° N 21:33:42 45° N 21:36:34 10° N
Cosmos 372 Rocket 3.9 21:30:24 10° SSW 21:35:30 85° WNW 21:40:42 10° NNE
USA 215 3.3 21:34:49 10° NE 21:41:23 80° NW 21:47:55 10° WSW
H-2A R/B 3.1 21:45:55 35° NE 21:45:55 35° NE 21:49:38 10° N
YAOGAN 6 4.1 21:46:14 36° NW 21:46:14 36° NW 21:48:44 10° NNW
Cosmos 158 Rocket 4.5 21:43:20 10° NNW 21:48:18 52° WSW 21:49:00 49° SW
Cosmos 1459 Rocket 4.2 21:45:22 19° SSW 21:50:03 69° W 21:56:15 10° N
NOAA 11 4.1 21:51:35 87° N 21:51:35 87° N 21:57:03 10° NNW
Cosmos 1833 Rocket 3.1 21:46:21 10° NNW 21:51:50 55° WSW 21:52:40 50° SW
Cosmos 2173 Rocket 4.2 21:48:08 23° SSW 21:52:07 68° W 21:58:22 10° N
Cosmos 2278 Rocket 4.0 21:48:03 10° WSW 21:53:03 31° NW 21:58:06 10° N
CZ-3 Stage 3 4.0 21:32:50 10° W 21:53:04 34° SSW 21:54:42 32° S
Cosmos 494 Rocket 4.5 21:51:15 10° NNW 21:55:13 51° N 21:55:13 51° N
Meteor 1-11 4.3 21:54:17 10° N 21:59:07 66° N 21:59:07 66° N
MetOp-B 4.4 22:06:49 64° W 22:06:49 64° W 22:11:51 10° NNW
USA 267 3.1 22:14:41 89° SW 22:14:41 89° SW 22:21:16 10° NW
Lacrosse 5 rocket 3.7 22:13:52 10° NW 22:15:09 20° NW 22:15:09 20° NW
Cosmos 2082 Rocket 3.6 22:16:03 10° NW 22:20:53 29° WSW 22:21:38 28° WSW
Cosmos 1725 Rocket 4.3 22:29:57 63° NW 22:29:57 63° NW 22:35:22 10° N
SPOT 5 4.3 22:37:51 38° WNW 22:37:51 38° WNW 22:41:58 10° NNW
Lacrosse 5 3.6 22:33:00 10° W 22:37:26 29° NNW 22:37:28 29° NNW
Tsikada Rocket 4.5 22:32:23 10° NNW 22:37:47 56° WNW 22:37:47 56° WNW
CZ-3B DEB 4.0 22:49:14 10° WNW 22:53:28 22° NW 22:53:28 22° NW
Terra 4.3 23:13:03 18° NNW 23:13:03 18° NNW 23:14:21 10° NNW
USA 215 4.4 23:19:52 19° NE 23:23:54 37° NNW 23:29:47 10° W
H-2A R/B 4.3 23:26:32 22° NW 23:26:32 22° NW 23:28:50 10° NW
